This demonstration page uses our WeatherBlox Daily Observations layout. Learn more.

Left ArrowRight Arrow

36.17497, -115.13722

Hourly Observations for September 12, 2020

Temp ( °F °C ) Dew Point ( °F °C ) Humidity (%) Winds ( mph kmh ) Pressure ( in mb ) Visibility ( mi km ) Precip ( " mm )
12:53 am 00:53 Clear 77 25 23 -5 13 13 NNW 10 17 29.94 1014 10 16 N/A
1:53 am 01:53 Clear 73 22.8 27 -2.8 18 18 WSW 5 7 29.95 1014 10 16 N/A
2:53 am 02:53 Clear 75 23.9 22 -5.6 14 14 NNW 12 19 29.94 1014 10 16 N/A
3:53 am 03:53 Clear 74 23.3 21 -6.1 14 14 NNW 7 11 29.95 1014 10 16 N/A
4:53 am 04:53 Clear 72 22.2 22 -5.6 15 15 NNE 5 7 29.96 1015 10 16 N/A
5:53 am 05:53 Clear 70 21.1 25 -3.9 18 18 W 7 11 29.98 1015 10 16 N/A
6:53 am 06:53 Sunny 69 20.6 24 -4.4 18 18 W 7 11 29.99 1016 10 16 N/A
7:53 am 07:53 Sunny 73 22.8 24 -4.4 16 16 N N/A 30.00 1016 10 16 N/A
8:53 am 08:53 Sunny 80 26.7 25 -3.9 13 13 N N/A 30.01 1016 10 16 N/A
9:53 am 09:53 Sunny 83 28.3 24 -4.4 11 11 N N/A 30.01 1016 10 16 N/A
10:53 am 10:53 Sunny 85 29.4 25 -3.9 11 11 VRB 5 7 30.00 1016 10 16 N/A
11:53 am 11:53 Sunny 89 31.7 24 -4.4 9 9 VRB 3 6 29.98 1015 10 16 N/A
12:53 pm 12:53 Sunny 91 32.8 24 -4.4 9 9 N N/A 29.94 1014 10 16 N/A
1:53 pm 13:53 Sunny 93 33.9 23 -5 8 8 SW 3 6 29.91 1013 10 16 N/A
2:53 pm 14:53 Sunny 95 35 23 -5 7 7 VRB 3 6 29.89 1012 10 16 N/A
3:53 pm 15:53 Sunny 97 36.1 21 -6.1 6 6 N N/A 29.86 1011 10 16 N/A
4:53 pm 16:53 Sunny 97 36.1 19 -7.2 6 6 ESE 6 9 29.85 1011 10 16 N/A
5:53 pm 17:53 Sunny 96 35.6 19 -7.2 6 6 S 5 7 29.85 1011 10 16 N/A
6:53 pm 18:53 Clear 95 35 19 -7.2 6 6 WSW 5 7 29.85 1011 10 16 N/A
7:53 pm 19:53 Clear 91 32.8 24 -4.4 9 9 W 6 9 29.85 1011 10 16 N/A
8:53 pm 20:53 Clear 86 30 28 -2.2 12 12 WNW 8 13 29.85 1011 10 16 N/A
9:53 pm 21:53 Clear 82 27.8 25 -3.9 12 12 WNW 7 11 29.86 1011 10 16 N/A
10:53 pm 22:53 Clear 80 26.7 27 -2.8 14 14 W 3 6 29.87 1012 10 16 N/A
11:53 pm 23:53 Clear 81 27.2 24 -4.4 12 12 N N/A 29.88 1012 10 16 N/A

Powered by AerisWeather